Flag for Germany Weather past 2 weeks in Dachau, Bavaria, Germany

Now
28 °F

Passing clouds.


Feels Like: 21 °F
Forecast: 27 / 40 °F
Wind: 7 mph from West

Location: Munich / Franz Josef Strauss Airport

Current Time: Mar 5, 2015 at 4:44:44 AM

Latest Report: Mar 5, 2015 at 3:50 AM


Visibility: N/A

Pressure: 30.42 "Hg

Humidity: 93%

Dew point: 27 °F

Location of DachauLocation

Historic Weather in Dachau — Graph

°F

Dachau temperature yesterday

Maximum temperature yesterday: 43 °F (at 12:50 PM)
Minimum temperature yesterday: 32 °F (at 11:20 PM)
Average temperature yesterday: 38 °F

Past Weeks' High & Low Weather Summary

 TemperatureHumidityPressure
High48 °F (Feb 20, 2:50 PM)100% (Feb 18, 4:50 PM)30.72 "Hg (Feb 18, 4:50 PM)
Low16 °F (Feb 20, 5:20 AM)43% (Feb 27, 2:20 PM)29.47 "Hg (Feb 21, 2:20 PM)
Average35 °F86%30.01 "Hg
* Reported Feb 18 2:20 AM — Mar 5 2:50 AM, Dachau, Weather by CustomWeather, © 2015

Note: Actual official high and low records may vary slightly from our data, if they occured in-between our weather recording intervals... More about our weather records

Advertising

Dachau weather history for previous 24 hours

 ConditionsComfort  
Time TempWeatherWind HumidityBarometerVisibility
2:50 AM
Thu, Mar 5
34 °FPassing clouds.8 mph81%30.42 "HgN/A
2:20 AM34 °FClear.8 mph81%30.42 "Hg10 mi
1:50 AM34 °FClear.7 mph81%30.42 "Hg10 mi
1:20 AM34 °FPassing clouds.8 mph81%30.39 "HgN/A
12:50 AM34 °FPartly cloudy.9 mph81%30.39 "HgN/A
12:20 AM34 °FClear.8 mph81%30.39 "Hg10 mi
11:50 PM
Wed, Mar 4
32 °FClear.9 mph87%30.39 "Hg10 mi
11:20 PM32 °FClear.8 mph80%30.39 "Hg10 mi
10:20 PM34 °FClear.8 mph81%30.36 "Hg10 mi
9:50 PM34 °FClear.7 mph81%30.36 "Hg10 mi
9:20 PM36 °FClear.6 mph70%30.36 "Hg10 mi
8:50 PM36 °FClear.1 mph70%30.33 "Hg10 mi
8:20 PM37 °FPartly cloudy.3 mph65%30.33 "HgN/A
7:50 PM39 °FPassing clouds.5 mph61%30.33 "HgN/A
7:20 PM39 °FPartly cloudy.5 mph61%30.33 "HgN/A
6:50 PM39 °FPassing clouds.5 mph61%30.30 "HgN/A
6:20 PM39 °FClear.5 mph61%30.30 "Hg10 mi
5:50 PM39 °FSunny.7 mph56%30.30 "Hg10 mi
5:20 PM41 °FPartly sunny.7 mph53%30.27 "HgN/A
4:50 PM41 °FPartly sunny.8 mph66%30.27 "HgN/A
4:20 PM39 °FPartly sunny.8 mph75%30.27 "HgN/A
3:50 PM39 °FBroken clouds.10 mph75%30.27 "HgN/A
3:20 PM39 °FBroken clouds.13 mph75%30.27 "HgN/A
2:50 PM37 °FRain showers. Broken clouds.20 mph70%30.27 "Hg3 mi
2:20 PM43 °FScattered showers. Broken clouds.9 mph57%30.27 "HgN/A
1:50 PM41 °FBroken clouds.12 mph66%30.27 "HgN/A
1:20 PM43 °FBroken clouds.14 mph66%30.27 "HgN/A
12:50 PM43 °FBroken clouds.12 mph57%30.27 "HgN/A
12:20 PM39 °FBroken clouds.9 mph65%30.27 "HgN/A
11:50 AM41 °FBroken clouds.9 mph66%30.27 "HgN/A
11:20 AM39 °FBroken clouds.10 mph65%30.27 "HgN/A
10:50 AM39 °FBroken clouds.10 mph70%30.27 "HgN/A
10:20 AM39 °FBroken clouds.15 mph81%30.27 "HgN/A
9:50 AM39 °FBroken clouds.13 mph81%30.27 "HgN/A
9:20 AM37 °FBroken clouds.12 mph87%30.27 "HgN/A
8:50 AM37 °FPartly sunny.13 mph87%30.27 "HgN/A
8:20 AM36 °FPartly sunny.13 mph93%30.27 "HgN/A
7:50 AM36 °FBroken clouds.13 mph93%30.24 "HgN/A
7:20 AM36 °FBroken clouds.13 mph93%30.24 "HgN/A
6:50 AM36 °FBroken clouds.12 mph93%30.21 "HgN/A
6:20 AM36 °FChilly.10 mph93%30.21 "HgN/A
5:50 AM36 °FMostly cloudy.8 mph93%30.21 "HgN/A
5:20 AM36 °FDrizzle. Mostly cloudy.10 mph93%30.18 "HgN/A
4:50 AM36 °FLight rain. Mostly cloudy.12 mph93%30.18 "HgN/A
4:20 AM36 °FLight rain. Mostly cloudy.12 mph93%30.15 "HgN/A
Weather by CustomWeather, © 2015

See weather overviewHow to use our weather pages